Location: Boiro
(42.6475°N, 8.8834°W)
Time: 06:08:41
(UTC+02:00)

SL-8 DEB - Pass Details

Date: 10 July 2022
Orbit: 890 x 1013 km, 83.1° (Epoch: 16 August)

Event Time Altitude Azimuth Distance (km) Brightness Sun altitude
Rises 22:48:41 0° 9° (N) 3,566 ? -6.0°
Reaches altitude 10° 22:52:34 10° 34° (NNE) 2,597 ? -6.6°
Maximum altitude 22:55:33 14° 65° (ENE) 2,296 ? -7.0°
Drops below altitude 10° 22:58:30 10° 95° (E) 2,565 ? -7.4°
Enters shadow 22:59:54 - 107° (ESE) 2,857 ? -7.6°
